TimeCST,TemperatureF,Dew PointF,Humidity,Sea Level PressureIn,VisibilityMPH,Wind Direction,Wind SpeedMPH,Gust SpeedMPH,PrecipitationIn,Events,Conditions,WindDirDegrees,DateUTC
12:56 AM,57.9,57.0,97,29.99,10.0,North,6.9,-,N/A,,Overcast,360,2013-01-02 06:56:00
1:56 AM,55.9,55.0,97,30.00,10.0,North,9.2,-,N/A,,Overcast,360,2013-01-02 07:56:00
2:56 AM,55.9,54.0,93,30.01,10.0,North,11.5,18.4,N/A,,Overcast,350,2013-01-02 08:56:00
3:03 AM,55.4,53.6,94,30.01,10.0,North,10.4,-,N/A,,Overcast,350,2013-01-02 09:03:00
3:56 AM,55.0,53.1,93,30.01,10.0,North,6.9,18.4,0.00,,Overcast,360,2013-01-02 09:56:00
4:17 AM,55.4,53.6,94,30.01,10.0,North,10.4,-,N/A,,Overcast,360,2013-01-02 10:17:00
4:56 AM,54.0,53.1,97,30.02,7.0,North,10.4,-,0.00,Rain,Light Rain,350,2013-01-02 10:56:00
5:56 AM,53.1,51.1,93,30.04,10.0,North,11.5,20.7,0.00,,Overcast,360,2013-01-02 11:56:00
6:56 AM,53.1,50.0,89,30.06,10.0,North,8.1,17.3,N/A,,Overcast,360,2013-01-02 12:56:00
7:56 AM,53.1,50.0,89,30.08,10.0,North,11.5,-,N/A,,Overcast,360,2013-01-02 13:56:00
8:56 AM,54.0,50.0,86,30.12,10.0,North,9.2,17.3,N/A,,Mostly Cloudy,360,2013-01-02 14:56:00
9:06 AM,55.4,50.0,82,30.10,10.0,North,13.8,-,N/A,,Mostly Cloudy,10,2013-01-02 15:06:00
9:37 AM,55.4,48.2,77,30.11,10.0,North,10.4,-,N/A,,Mostly Cloudy,360,2013-01-02 15:37:00
9:56 AM,55.0,48.0,77,30.12,10.0,North,9.2,-,N/A,,Mostly Cloudy,350,2013-01-02 15:56:00
10:56 AM,55.9,48.0,75,30.11,10.0,North,8.1,-,N/A,,Overcast,360,2013-01-02 16:56:00
11:56 AM,55.9,48.0,75,30.09,10.0,North,10.4,-,N/A,,Overcast,10,2013-01-02 17:56:00
12:56 PM,57.0,48.0,72,30.06,10.0,North,10.4,-,N/A,,Overcast,10,2013-01-02 18:56:00
1:56 PM,53.1,46.9,80,30.06,10.0,North,5.8,-,N/A,,Overcast,350,2013-01-02 19:56:00
2:56 PM,53.1,46.0,77,30.06,10.0,North,8.1,16.1,N/A,,Overcast,360,2013-01-02 20:56:00
3:56 PM,53.1,46.0,77,30.08,10.0,North,9.2,-,N/A,,Overcast,350,2013-01-02 21:56:00
4:56 PM,51.1,46.0,83,30.12,10.0,NNW,8.1,-,N/A,,Overcast,330,2013-01-02 22:56:00
5:56 PM,50.0,45.0,83,30.14,10.0,NNW,10.4,20.7,N/A,,Overcast,340,2013-01-02 23:56:00
6:56 PM,50.0,44.1,80,30.13,10.0,North,10.4,17.3,N/A,,Mostly Cloudy,350,2013-01-03 00:56:00
7:56 PM,48.9,44.1,83,30.14,10.0,North,9.2,-,N/A,,Overcast,350,2013-01-03 01:56:00
8:56 PM,48.9,44.1,83,30.15,10.0,North,8.1,17.3,N/A,,Overcast,360,2013-01-03 02:56:00
9:56 PM,48.0,44.1,86,30.17,10.0,NNW,10.4,-,N/A,,Overcast,340,2013-01-03 03:56:00
10:56 PM,48.0,43.0,83,30.13,10.0,NNE,10.4,-,N/A,,Overcast,20,2013-01-03 04:56:00
11:56 PM,46.9,43.0,86,30.17,10.0,North,10.4,17.3,0.00,Rain,Light Rain,360,2013-01-03 05:56:00